This is the latest recevied weather packets stored in our database for station/object IK1PCD-11. If no packets are shown the sender has not sent any weather packets the latest 10 day(s).
| Time | Temp. | Humidity | Pressure | Rain* | Wind** | Luminosity | Snow |
|---|---|---|---|---|---|---|---|
| 1788124157 | 14.44° C | 100% | 1019.7 hPa | - | - | - | - |
| 1788123257 | 14.44° C | 100% | 1019.6 hPa | - | - | - | - |
| 1788122357 | 14.44° C | 100% | 1019.7 hPa | - | - | - | - |
| 1788121457 | 14.44° C | 100% | 1019.5 hPa | - | - | - | - |
| 1788120549 | 14.44° C | 100% | 1019.4 hPa | - | - | - | - |
| 1788119655 | 15° C | 100% | 1019.3 hPa | - | - | - | - |
| 1788118755 | 15.56° C | 100% | 1019.4 hPa | - | - | - | - |
| 1788117855 | 16.11° C | 100% | 1019.4 hPa | - | - | - | - |
| 1788116965 | 16.67° C | 100% | 1019.4 hPa | - | - | - | - |
| 1788116055 | 16.67° C | 100% | 1019.3 hPa | - | - | - | - |
| 1788115154 | 17.22° C | 100% | 1019.1 hPa | - | - | - | - |
| 1788114254 | 17.78° C | 100% | 1019 hPa | - | - | - | - |
| 1788113354 | 18.33° C | 100% | 1018.9 hPa | - | - | - | - |
| 1788112454 | 19.44° C | 100% | 1018.8 hPa | - | - | - | - |
| 1788111554 | 20.56° C | 100% | 1018.7 hPa | - | - | - | - |
| 1788108853 | 22.22° C | 100% | 1018.4 hPa | - | - | - | - |
| 1788107952 | 22.22° C | 100% | 1018.2 hPa | - | - | - | - |
| 1788107049 | 22.78° C | 100% | 1018.1 hPa | - | - | - | - |
| 1788106149 | 22.78° C | 100% | 1018 hPa | - | - | - | - |
| 1788105249 | 23.33° C | 100% | 1017.9 hPa | - | - | - | - |
| 1788104349 | 23.33° C | 100% | 1017.8 hPa | - | - | - | - |
| 1788101649 | 23.33° C | 100% | 1017.9 hPa | - | - | - | - |
| 1788100749 | 23.33° C | 100% | 1017.9 hPa | - | - | - | - |
| 1788099849 | 24.44° C | 100% | 1017.8 hPa | - | - | - | - |
| 1788098948 | 24.44° C | 100% | 1017.9 hPa | - | - | - | - |
* Rain since midnight (hover to see other rain measurements)
** Current wind speed in m/s (hover to see current wind gust speed)